Regional Weather Roundup
Issued by NWS

Home | Current Version | Previous Version | Text Only | Print | Product List | Glossary On
Versions: 1 2 3 4 5 6 7 8 9 10 11 12 13 14 15 16 17 18 19 20 21 22 23 24 25 26 27 28 29 30 31 32 33 34 35 36 37 38 39 40 41 42 43 44 45 46 47 48 49 50
000
ASUS45 KABQ 280810
RWRNM
WEATHER ROUNDUP FOR NEW MEXICO
NATIONAL WEATHER SERVICE ALBUQUERQUE NM
200 AM MDT MON JUL 28 2014

NOTE: "FAIR" MEANS FEW OR NO CLOUDS BELOW 12,000 FEET AGL WITH NO
       SIGNIFICANT WEATHER OR OBSTRUCTIONS TO VISION.

      THIS PRODUCT IS RELEASED AS TWO VERSIONS.  ONE VERSION NEAR
      THE TOP OF THE HOUR CONTAINING PRELIMINARY DATA FROM ALBUQUERQUE
      AND OTHER STATIONS.  A FINAL VERSION WITH ADDITIONAL DATA IS
      ISSUED ABOUT 10 MINUTES AFTER THE HOUR.

NMZ501-503-504-510>518-280900-
NORTHWEST PLATEAU/NORTHCENTRAL MOUNTAINS

CITY           SKY/WX    TMP DP  RH WIND       PRES   REMARKS
FARMINGTON     CLOUDY    66  60  81 E9        30.38R
LOS ALAMOS     CLOUDY    61  51  70 N8G18     30.51S
SANTA FE       CLOUDY    62  56  80 N18G26    30.42S
TAOS           CLOUDY    57  52  82 NE7       30.52F
ANGEL FIRE     LGT RAIN  53  52  95 NW6       30.62F

$$
NMZ402-403-502-505>509-280900-
WESTCENTRAL MOUNTAINS/SOUTHWEST MOUNTAINS

CITY           SKY/WX    TMP DP  RH WIND       PRES   REMARKS
GALLUP         CLOUDY    62  54  74 NE10      30.43R
SILVER CITY    LGT RAIN  70  54  56 N12       30.33S

$$
NMZ407-409-411-412-280900-
SOUTHERN DESERTS

CITY           SKY/WX    TMP DP  RH WIND       PRES   REMARKS
LORDSBURG      PTSUNNY   68  61  77 NW9       30.23S
DEMING         CLOUDY    73  61  65 W8        30.19F
LAS CRUCES     MOCLDY    72  60  65 NW9       30.20F
HOLLOMAN AFB   TSTM      77  61  57 S5        30.20R
ALAMOGORDO     CLOUDY    73  63  68 S8        30.22R THUNDER
T OR C         LGT RAIN  74  58  57 SW13      30.27R

$$
NMZ519>523-280900-
CENTRAL VALLEYS/CENTRAL HIGHLANDS

CITY           SKY/WX    TMP DP  RH WIND       PRES   REMARKS
ALBUQUERQUE    MOCLDY    73  57  57 NW9       30.34S
DOUBLE EAGLE   MOCLDY    67  55  65 N18G24    30.39S
MORIARTY ARPT  FAIR      64  52  65 NW6       30.42R
CLINES CORNERS PTCLDY    60  51  72 NE15      30.45F
BELEN          PTSUNNY   71  56  59 N7        30.31R
SOCORRO        FAIR      73  53  49 CALM      30.27F

$$
NMZ524>526-539-540-280900-
SOUTHCENTRAL MOUNTAINS

CITY           SKY/WX    TMP DP  RH WIND       PRES   REMARKS
RUIDOSO        LGT RAIN  64  54  68 SE16G22   30.45R

$$
NMZ527>531-280900-
NORTHEAST HIGHLANDS/NORTHEAST PLAINS

CITY           SKY/WX    TMP DP  RH WIND       PRES   REMARKS
LAS VEGAS      CLOUDY    57  55  93 N13       30.49F
RATON          NOT AVBL
CLAYTON        TSTM      60  57  89 NW5       30.45S FOG

$$
NMZ532>537-280900-
EASTCENTRAL PLAINS

CITY           SKY/WX    TMP DP  RH WIND       PRES   REMARKS
TUCUMCARI      CLOUDY    73  61  65 N23       30.31R
CANNON AFB     PTCLDY    74  63  69 E10       30.27R
CLOVIS AIRPORT NOT AVBL

$$
NMZ028-029-538-280900-
SOUTHEAST PLAINS

CITY           SKY/WX    TMP DP  RH WIND       PRES   REMARKS
ROSWELL        PTCLDY    81  55  40 E6        30.16S
ARTESIA        PTCLDY    82  59  44 SE8       30.15S
CARLSBAD       PTCLDY    85  58  39 SE10      30.12S
HOBBS          MOCLDY    77  57  50 SE7       30.19F


$$


USA.gov is the U.S. government's official web portal to all federal, state and local government web resources and services.